Ashgabat, Turkmenistan

3:39 AM +05 on November 16, 2019 (GMT +0500)
Ashgabat

Weather History for UTAA - June, 2019

Change the Weather History Date:

Sunday, June 2, 2019

  Actual Average Record
Temperature  
Mean Temperature 77 °F -  
Max Temperature 90 °F 96 °F - ()
Min Temperature 64 °F 69 °F - ()
Cooling Degree Days 12    
Growing Degree Days 27 (Base 50)    
Moisture  
Dew Point 53 °F    
Average Humidity 37    
Maximum Humidity 64    
Minimum Humidity 20    
Precipitation  
Precipitation 0.51 in 0.01 in - ()
Sea Level Pressure  
Sea Level Pressure 29.95 in    
Wind  
Wind Speed 10 mph ()    
Max Wind Speed 21 mph    
Max Gust Speed 28 mph    
Visibility 6.1 miles    
Events      
T = Trace of Precipitation, MM = Missing Value Source: Averaged Metar Reports

Daily Weather History Graph

Daily Weather History Graph

Search for Another Location

Airport or City:

Astronomy

Jun. 02, 2019 Rise Set
Actual Time 5:45 AM +05 8:23 PM +05
Civil Twilight 5:14 AM +05 8:54 PM +05
Nautical Twilight 4:36 AM +05 9:33 PM +05
Astronomical Twilight 3:53 AM +05 10:16 PM +05
Moon 5:08 AM +05 (6/2) 7:17 PM +05 (6/2)
Length of Visible Light 15h 39m
Length of Day
14h 38m
Waning Crescent, 2% of the Moon is Illuminated
Jun 2
Waning Crescent
Jun 3
New
Jun 10
First Quarter
Jun 17
Full
Jun 25
Last Quarter

Hourly Weather History & Observations

Time (+05) Temp. Heat Index Dew Point Humidity Pressure Visibility Wind Dir Wind Speed Gust Speed Precip Events Conditions
12:00 AM 71.6 °F - 59.0 °F 64% 29.98 in 6.2 mi SW 16.1 mph 27.6 mph N/A   Scattered Clouds
1:00 AM 71.6 °F - 53.6 °F 53% 29.95 in 6.2 mi SSW 9.2 mph 20.7 mph N/A   Mostly Cloudy
2:00 AM 70 °F - 55 °F 49% 29.94 in 6 mi West 8.9 mph - -   Partly Cloudy
2:00 AM 71.6 °F - 53.6 °F 53% 29.95 in 6.2 mi WSW 9.2 mph - N/A   Mostly Cloudy
3:00 AM 69.8 °F - 55.4 °F 60% 29.95 in 5.6 mi West 6.9 mph - N/A   Mostly Cloudy
4:00 AM 71.6 °F - 53.6 °F 53% 29.95 in 6.2 mi West 11.5 mph - N/A   Mostly Cloudy
5:00 AM 71 °F - 52 °F 41% 29.93 in 6 mi WSW 3.5 mph - -   Partly Cloudy
5:00 AM 71.6 °F - 51.8 °F 50% 29.92 in 6.2 mi WSW 9.2 mph - N/A   Scattered Clouds
6:00 AM 71.6 °F - 51.8 °F 50% 29.95 in 6.2 mi WSW 4.6 mph - N/A   Mostly Cloudy
7:00 AM 75.2 °F - 55.4 °F 50% 29.95 in 6.2 mi West 4.6 mph - N/A   Mostly Cloudy
8:00 AM 75 °F - 52 °F 34% 29.95 in 6 mi South 2.2 mph - -   Partly Cloudy
8:00 AM 77.0 °F - 55.4 °F 47% 29.95 in 6.2 mi West 4.6 mph - N/A   Mostly Cloudy
9:00 AM 80.6 °F 80.3 °F 53.6 °F 39% 29.98 in 6.2 mi West 6.9 mph - N/A   Mostly Cloudy
10:00 AM 84.2 °F - 48.2 °F 29% 29.98 in 6.2 mi West 11.5 mph - N/A   Mostly Cloudy
11:00 AM 86 °F - 52 °F 21% 30.00 in 6 mi WNW 20.1 mph - -   Partly Cloudy
11:00 AM 86.0 °F - 51.8 °F 31% 29.98 in 6.2 mi West 16.1 mph - N/A   Scattered Clouds
12:00 PM 87.8 °F - 51.8 °F 29% 29.98 in 6.2 mi WNW 18.4 mph - N/A   Scattered Clouds
1:00 PM 89.6 °F - 51.8 °F 27% 29.98 in 6.2 mi WNW 18.4 mph - N/A   Scattered Clouds
2:00 PM 89 °F - 53 °F 20% 29.96 in 6 mi WNW 17.9 mph - -   Partly Cloudy
2:00 PM 89.6 °F 87.3 °F 53.6 °F 29% 29.98 in 6.2 mi WNW 18.4 mph - N/A   Scattered Clouds
3:00 PM 91.4 °F 89.4 °F 55.4 °F 29% 29.95 in 6.2 mi WNW 16.1 mph - N/A   Scattered Clouds
4:00 PM 89.6 °F - 51.8 °F 27% 29.95 in 6.2 mi WNW 16.1 mph - N/A   Mostly Cloudy
5:00 PM 89 °F - 54 °F 21% 29.93 in 6 mi WNW 20.1 mph - -   Mostly Cloudy
5:00 PM 87.8 °F 85.7 °F 53.6 °F 31% 29.95 in 6.2 mi WNW 20.7 mph - N/A   Mostly Cloudy
6:00 PM 89.6 °F 87.3 °F 53.6 °F 29% 29.92 in 6.2 mi WNW 16.1 mph - N/A   Mostly Cloudy
7:00 PM 87.8 °F - 51.8 °F 29% 29.92 in 6.2 mi West 16.1 mph - N/A   Mostly Cloudy
8:00 PM 85 °F - 50 °F 20% 29.89 in 6 mi West 11.2 mph - -   Partly Cloudy
8:00 PM 84.2 °F 82.8 °F 53.6 °F 35% 29.92 in 6.2 mi West 13.8 mph - N/A   Mostly Cloudy
9:00 PM 82.4 °F 81.4 °F 53.6 °F 37% 29.95 in 6.2 mi West 11.5 mph - N/A   Mostly Cloudy
10:00 PM 80.6 °F 80.3 °F 53.6 °F 39% 29.95 in 6.2 mi WSW 9.2 mph - N/A   Mostly Cloudy
11:00 PM 81 °F - 51 °F 25% 29.96 in 6 mi West 4.6 mph - -   Scattered Clouds
11:00 PM 80.6 °F - 51.8 °F 37% 29.95 in 6.2 mi West 9.2 mph - N/A   Scattered Clouds